Time,TemperatureF,DewpointF,PressureIn,WindDirection,WindDirectionDegrees,WindSpeedMPH,WindSpeedGustMPH,Humidity,HourlyPrecipIn,Conditions,Clouds,dailyrainin,SoftwareType,DateUTC
2013-02-22 00:00:00,26.2,24.2,29.91,East,90,0.0,0.0,92,0.00,CLR,BKN,0.00,WeatherDisplay:10.37,2013-02-22 06:00:00,
2013-02-22 00:05:00,26.2,24.2,29.90,ENE,68,0.0,0.0,92,0.00,CLR,BKN,0.00,WeatherDisplay:10.37,2013-02-22 06:05:00,
2013-02-22 00:10:00,26.2,24.2,29.89,East,90,0.0,0.0,92,0.00,CLR,BKN,0.00,WeatherDisplay:10.37,2013-02-22 06:10:00,
2013-02-22 00:15:00,26.2,24.2,29.89,East,90,0.0,0.0,92,0.00,CLR,BKN,0.00,WeatherDisplay:10.37,2013-02-22 06:15:00,
2013-02-22 00:20:00,26.2,24.2,29.89,ENE,68,0.0,0.0,92,0.00,CLR,BKN,0.00,WeatherDisplay:10.37,2013-02-22 06:20:00,
2013-02-22 00:25:00,26.2,24.2,29.89,East,90,0.0,0.0,92,0.00,CLR,BKN,0.00,WeatherDisplay:10.37,2013-02-22 06:25:00,
2013-02-22 00:30:00,26.2,24.2,29.89,NE,45,0.0,0.0,92,0.00,CLR,BKN,0.00,WeatherDisplay:10.37,2013-02-22 06:30:00,
2013-02-22 00:35:00,26.2,24.2,29.88,East,90,0.0,0.0,92,0.00,CLR,BKN,0.00,WeatherDisplay:10.37,2013-02-22 06:35:00,
2013-02-22 00:40:00,26.2,24.2,29.88,East,90,0.0,0.0,92,0.00,CLR,BKN,0.00,WeatherDisplay:10.37,2013-02-22 06:40:00,
2013-02-22 00:45:00,26.2,24.2,29.88,East,90,0.0,0.0,92,0.00,CLR,BKN,0.00,WeatherDisplay:10.37,2013-02-22 06:45:00,
2013-02-22 00:50:00,26.2,24.2,29.88,East,90,0.0,0.0,92,0.00,CLR,BKN,0.00,WeatherDisplay:10.37,2013-02-22 06:50:00,
2013-02-22 00:55:00,26.2,24.2,29.88,ENE,68,0.0,0.0,92,0.00,CLR,BKN,0.00,WeatherDisplay:10.37,2013-02-22 06:55:00,
2013-02-22 01:00:00,26.2,24.2,29.88,East,90,0.0,0.0,92,0.00,CLR,BKN,0.00,WeatherDisplay:10.37,2013-02-22 07:00:00,
2013-02-22 01:05:00,26.2,24.2,29.88,East,90,0.0,0.0,92,0.00,CLR,BKN,0.00,WeatherDisplay:10.37,2013-02-22 07:05:00,
2013-02-22 01:10:00,26.2,24.2,29.88,ENE,68,0.0,0.0,92,0.00,CLR,BKN,0.00,WeatherDisplay:10.37,2013-02-22 07:10:00,
2013-02-22 01:15:00,26.2,24.2,29.87,East,90,0.0,0.0,92,0.00,CLR,BKN,0.00,WeatherDisplay:10.37,2013-02-22 07:15:00,
2013-02-22 01:20:00,26.2,24.2,29.87,East,90,0.0,0.0,92,0.00,CLR,BKN,0.00,WeatherDisplay:10.37,2013-02-22 07:20:00,
2013-02-22 01:25:00,26.2,24.2,29.87,ENE,68,0.0,0.0,92,0.00,CLR,BKN,0.00,WeatherDisplay:10.37,2013-02-22 07:25:00,
2013-02-22 01:30:00,26.2,24.2,29.87,East,90,0.0,0.0,92,0.00,CLR,BKN,0.00,WeatherDisplay:10.37,2013-02-22 07:30:00,
2013-02-22 01:35:00,26.2,24.2,29.87,East,90,0.0,0.0,92,0.00,CLR,BKN,0.00,WeatherDisplay:10.37,2013-02-22 07:35:00,
2013-02-22 01:40:00,26.2,24.2,29.87,East,90,0.0,0.0,92,0.00,CLR,BKN,0.00,WeatherDisplay:10.37,2013-02-22 07:40:00,
2013-02-22 01:45:00,26.2,24.2,29.87,ENE,68,0.0,0.0,92,0.00,CLR,BKN,0.00,WeatherDisplay:10.37,2013-02-22 07:45:00,
2013-02-22 01:50:00,26.2,24.2,29.87,ENE,68,0.0,0.0,92,0.00,CLR,BKN,0.00,WeatherDisplay:10.37,2013-02-22 07:50:00,
2013-02-22 01:55:00,26.1,24.1,29.87,East,90,0.0,0.0,92,0.00,CLR,BKN,0.00,WeatherDisplay:10.37,2013-02-22 07:55:00,
2013-02-22 02:00:00,26.1,24.1,29.86,East,90,0.0,0.0,92,0.00,CLR,BKN,0.00,WeatherDisplay:10.37,2013-02-22 08:00:00,
2013-02-22 02:05:00,26.1,24.1,29.86,ESE,112,0.0,0.0,92,0.00,CLR,BKN,0.00,WeatherDisplay:10.37,2013-02-22 08:05:00,
2013-02-22 02:10:00,26.1,24.1,29.85,East,90,0.0,0.0,92,0.00,CLR,BKN,0.00,WeatherDisplay:10.37,2013-02-22 08:10:00,
2013-02-22 02:15:00,25.9,23.9,29.85,ENE,68,0.0,0.0,92,0.00,CLR,BKN,0.00,WeatherDisplay:10.37,2013-02-22 08:15:00,
2013-02-22 02:20:00,25.9,23.9,29.85,ENE,68,0.0,0.0,92,0.00,CLR,BKN,0.00,WeatherDisplay:10.37,2013-02-22 08:20:00,
2013-02-22 02:25:00,25.9,23.9,29.85,East,90,0.0,0.0,92,0.00,CLR,BKN,0.00,WeatherDisplay:10.37,2013-02-22 08:25:00,
2013-02-22 02:30:00,25.9,23.9,29.85,East,90,0.0,0.0,92,0.00,CLR,BKN,0.00,WeatherDisplay:10.37,2013-02-22 08:30:00,
2013-02-22 02:35:00,25.9,23.9,29.85,East,90,0.0,0.0,92,0.00,CLR,BKN,0.00,WeatherDisplay:10.37,2013-02-22 08:35:00,
2013-02-22 02:40:00,25.9,23.9,29.85,ENE,68,0.0,0.0,92,0.00,CLR,BKN,0.00,WeatherDisplay:10.37,2013-02-22 08:40:00,
2013-02-22 02:45:00,25.9,23.9,29.84,ENE,68,0.0,0.0,92,0.00,CLR,BKN,0.00,WeatherDisplay:10.37,2013-02-22 08:45:00,
2013-02-22 02:50:00,25.9,23.9,29.84,ENE,68,0.0,0.0,92,0.00,CLR,BKN,0.00,WeatherDisplay:10.37,2013-02-22 08:50:00,
2013-02-22 02:55:00,25.9,23.6,29.84,East,90,0.0,0.0,91,0.00,CLR,BKN,0.00,WeatherDisplay:10.37,2013-02-22 08:55:00,
2013-02-22 03:00:00,25.9,23.9,29.84,ENE,68,0.0,0.0,92,0.00,CLR,BKN,0.00,WeatherDisplay:10.37,2013-02-22 09:00:00,
2013-02-22 03:05:00,25.9,23.6,29.84,East,90,0.0,0.0,91,0.00,CLR,BKN,0.00,WeatherDisplay:10.37,2013-02-22 09:05:00,
2013-02-22 03:10:00,25.9,23.6,29.84,ENE,68,0.0,0.0,91,0.00,CLR,BKN,0.00,WeatherDisplay:10.37,2013-02-22 09:10:00,
2013-02-22 03:15:00,25.7,23.4,29.83,East,90,0.0,0.0,91,0.00,CLR,BKN,0.00,WeatherDisplay:10.37,2013-02-22 09:15:00,
2013-02-22 03:20:00,25.7,23.4,29.83,East,90,0.0,0.0,91,0.00,CLR,BKN,0.00,WeatherDisplay:10.37,2013-02-22 09:20:00,
2013-02-22 03:25:00,25.7,23.4,29.83,East,90,0.0,0.0,91,0.00,CLR,BKN,0.00,WeatherDisplay:10.37,2013-02-22 09:25:00,
2013-02-22 03:31:00,25.7,23.4,29.83,ENE,68,0.0,0.0,91,0.00,CLR,BKN,0.00,WeatherDisplay:10.37,2013-02-22 09:31:00,
2013-02-22 03:36:00,25.5,23.3,29.83,ENE,68,0.0,0.0,91,0.00,CLR,BKN,0.00,WeatherDisplay:10.37,2013-02-22 09:36:00,
2013-02-22 03:41:00,25.5,23.3,29.83,ENE,68,0.0,0.0,91,0.00,CLR,BKN,0.00,WeatherDisplay:10.37,2013-02-22 09:41:00,
2013-02-22 03:46:00,25.5,23.3,29.82,ENE,68,0.0,0.0,91,0.00,CLR,BKN,0.00,WeatherDisplay:10.37,2013-02-22 09:46:00,
2013-02-22 03:51:00,25.5,23.3,29.82,ENE,68,0.0,0.0,91,0.00,CLR,BKN,0.00,WeatherDisplay:10.37,2013-02-22 09:51:00,
2013-02-22 03:56:00,25.5,23.3,29.82,ENE,68,0.0,0.0,91,0.00,CLR,BKN,0.00,WeatherDisplay:10.37,2013-02-22 09:56:00,
2013-02-22 04:01:00,25.3,23.1,29.82,ENE,68,0.0,0.0,91,0.00,CLR,BKN,0.00,WeatherDisplay:10.37,2013-02-22 10:01:00,
2013-02-22 04:06:00,25.3,23.1,29.82,East,90,0.0,0.0,91,0.00,CLR,BKN,0.00,WeatherDisplay:10.37,2013-02-22 10:06:00,
2013-02-22 04:11:00,25.3,23.1,29.81,ENE,68,0.0,0.0,91,0.00,CLR,BKN,0.00,WeatherDisplay:10.37,2013-02-22 10:11:00,
2013-02-22 04:16:00,25.3,23.1,29.81,East,90,0.0,0.0,91,0.00,CLR,BKN,0.00,WeatherDisplay:10.37,2013-02-22 10:16:00,
2013-02-22 04:21:00,25.3,23.1,29.81,East,90,0.0,0.0,91,0.00,CLR,BKN,0.00,WeatherDisplay:10.37,2013-02-22 10:21:00,
2013-02-22 04:26:00,25.3,23.1,29.81,NE,45,0.0,0.0,91,0.00,CLR,BKN,0.00,WeatherDisplay:10.37,2013-02-22 10:26:00,
2013-02-22 04:31:00,25.5,23.3,29.81,East,90,0.0,0.0,91,0.00,CLR,BKN,0.00,WeatherDisplay:10.37,2013-02-22 10:31:00,
2013-02-22 04:36:00,25.5,23.3,29.80,ENE,68,0.0,0.0,91,0.00,CLR,BKN,0.00,WeatherDisplay:10.37,2013-02-22 10:36:00,
2013-02-22 04:41:00,25.5,23.5,29.80,ENE,68,0.0,0.0,92,0.00,CLR,BKN,0.00,WeatherDisplay:10.37,2013-02-22 10:41:00,
2013-02-22 04:46:00,25.3,23.3,29.80,East,90,0.0,0.0,92,0.00,CLR,BKN,0.00,WeatherDisplay:10.37,2013-02-22 10:46:00,
2013-02-22 04:51:00,25.3,23.3,29.80,NE,45,0.0,0.0,92,0.00,CLR,BKN,0.00,WeatherDisplay:10.37,2013-02-22 10:51:00,
2013-02-22 04:56:00,25.3,23.1,29.81,ENE,68,0.0,0.0,91,0.00,CLR,BKN,0.00,WeatherDisplay:10.37,2013-02-22 10:56:00,
2013-02-22 05:01:00,25.3,23.1,29.81,ENE,68,0.0,0.0,91,0.00,CLR,BKN,0.00,WeatherDisplay:10.37,2013-02-22 11:01:00,
2013-02-22 05:06:00,25.3,23.1,29.81,East,90,0.0,0.0,91,0.00,CLR,BKN,0.00,WeatherDisplay:10.37,2013-02-22 11:06:00,
2013-02-22 05:11:00,25.3,23.1,29.81,ENE,68,0.0,0.0,91,0.00,CLR,BKN,0.00,WeatherDisplay:10.37,2013-02-22 11:11:00,
2013-02-22 05:16:00,25.3,23.1,29.80,East,90,0.0,0.0,91,0.00,CLR,BKN,0.00,WeatherDisplay:10.37,2013-02-22 11:16:00,
2013-02-22 05:21:00,25.3,23.1,29.79,ENE,68,0.0,0.0,91,0.00,CLR,BKN,0.00,WeatherDisplay:10.37,2013-02-22 11:21:00,
2013-02-22 05:26:00,25.3,23.1,29.79,ENE,68,0.0,0.0,91,0.00,CLR,BKN,0.00,WeatherDisplay:10.37,2013-02-22 11:26:00,
2013-02-22 05:31:00,25.3,23.1,29.80,ENE,68,0.0,0.0,91,0.00,CLR,BKN,0.00,WeatherDisplay:10.37,2013-02-22 11:31:00,
2013-02-22 05:36:00,25.3,23.1,29.79,ENE,68,0.0,0.0,91,0.00,CLR,BKN,0.00,WeatherDisplay:10.37,2013-02-22 11:36:00,
2013-02-22 05:41:00,25.3,23.1,29.79,ENE,68,0.0,0.0,91,0.00,CLR,BKN,0.00,WeatherDisplay:10.37,2013-02-22 11:41:00,
2013-02-22 05:46:00,25.5,23.3,29.79,East,90,0.0,0.0,91,0.00,CLR,BKN,0.00,WeatherDisplay:10.37,2013-02-22 11:46:00,
2013-02-22 05:51:00,25.5,23.3,29.79,ENE,68,0.0,0.0,91,0.00,CLR,BKN,0.00,WeatherDisplay:10.37,2013-02-22 11:51:00,
2013-02-22 05:56:00,25.5,23.3,29.79,East,90,0.0,0.0,91,0.00,CLR,BKN,0.00,WeatherDisplay:10.37,2013-02-22 11:56:00,
2013-02-22 06:01:00,25.5,23.3,29.80,East,90,0.0,0.0,91,0.00,CLR,BKN,0.00,WeatherDisplay:10.37,2013-02-22 12:01:00,
2013-02-22 06:06:00,25.5,23.3,29.79,East,90,0.0,0.0,91,0.00,CLR,BKN,0.00,WeatherDisplay:10.37,2013-02-22 12:06:00,
2013-02-22 06:11:00,25.7,23.4,29.79,East,90,0.0,0.0,91,0.00,CLR,BKN,0.00,WeatherDisplay:10.37,2013-02-22 12:11:00,
2013-02-22 06:16:00,25.7,23.4,29.79,East,90,0.0,0.0,91,0.00,CLR,BKN,0.00,WeatherDisplay:10.37,2013-02-22 12:16:00,
2013-02-22 06:21:00,25.9,23.6,29.79,East,90,0.0,0.0,91,0.00,CLR,BKN,0.00,WeatherDisplay:10.37,2013-02-22 12:21:00,
2013-02-22 06:26:00,25.9,23.6,29.79,East,90,0.0,0.0,91,0.00,CLR,BKN,0.00,WeatherDisplay:10.37,2013-02-22 12:26:00,
2013-02-22 06:31:00,25.9,23.6,29.78,East,90,0.0,0.0,91,0.00,CLR,BKN,0.00,WeatherDisplay:10.37,2013-02-22 12:31:00,
2013-02-22 06:36:00,26.1,23.8,29.78,East,90,0.0,0.0,91,0.00,CLR,BKN,0.00,WeatherDisplay:10.37,2013-02-22 12:36:00,
2013-02-22 06:41:00,26.1,23.8,29.78,ENE,68,0.0,0.0,91,0.00,CLR,BKN,0.00,WeatherDisplay:10.37,2013-02-22 12:41:00,
2013-02-22 06:46:00,26.2,24.0,29.78,East,90,0.0,0.0,91,0.00,CLR,BKN,0.00,WeatherDisplay:10.37,2013-02-22 12:46:00,
2013-02-22 06:51:00,26.2,24.0,29.77,East,90,0.0,0.0,91,0.00,CLR,BKN,0.00,WeatherDisplay:10.37,2013-02-22 12:51:00,
2013-02-22 06:56:00,26.2,24.0,29.77,East,90,0.0,0.0,91,0.00,CLR,BKN,0.00,WeatherDisplay:10.37,2013-02-22 12:56:00,
2013-02-22 07:01:00,26.4,24.1,29.78,East,90,0.0,0.0,91,0.00,CLR,BKN,0.00,WeatherDisplay:10.37,2013-02-22 13:01:00,
2013-02-22 07:06:00,26.6,24.3,29.78,East,90,0.0,0.0,91,0.00,CLR,BKN,0.00,WeatherDisplay:10.37,2013-02-22 13:06:00,
2013-02-22 07:11:00,26.6,24.3,29.78,East,90,0.0,0.0,91,0.00,CLR,BKN,0.00,WeatherDisplay:10.37,2013-02-22 13:11:00,
2013-02-22 07:16:00,26.8,24.5,29.78,East,90,0.0,0.0,91,0.00,CLR,BKN,0.00,WeatherDisplay:10.37,2013-02-22 13:16:00,
2013-02-22 07:21:00,26.8,24.5,29.77,ENE,68,0.0,0.0,91,0.00,CLR,BKN,0.00,WeatherDisplay:10.37,2013-02-22 13:21:00,
2013-02-22 07:26:00,27.0,24.7,29.77,East,90,0.0,0.0,91,0.00,CLR,BKN,0.00,WeatherDisplay:10.37,2013-02-22 13:26:00,
2013-02-22 07:31:00,27.0,24.7,29.78,East,90,0.0,0.0,91,0.00,CLR,BKN,0.00,WeatherDisplay:10.37,2013-02-22 13:31:00,
2013-02-22 07:36:00,27.1,24.9,29.78,East,90,0.0,0.0,91,0.00,CLR,BKN,0.00,WeatherDisplay:10.37,2013-02-22 13:36:00,
2013-02-22 07:41:00,27.1,24.9,29.78,ESE,112,0.0,0.0,91,0.00,CLR,BKN,0.00,WeatherDisplay:10.37,2013-02-22 13:41:00,
2013-02-22 07:46:00,27.3,25.0,29.78,ESE,112,0.0,0.0,91,0.00,CLR,BKN,0.00,WeatherDisplay:10.37,2013-02-22 13:46:00,
2013-02-22 07:51:00,27.5,25.2,29.78,East,90,0.0,0.0,91,0.00,CLR,BKN,0.00,WeatherDisplay:10.37,2013-02-22 13:51:00,
2013-02-22 07:56:00,27.7,25.4,29.78,East,90,0.0,0.0,91,0.00,CLR,BKN,0.00,WeatherDisplay:10.37,2013-02-22 13:56:00,
2013-02-22 08:01:00,27.7,25.4,29.78,NE,45,0.0,0.0,91,0.00,CLR,BKN,0.00,WeatherDisplay:10.37,2013-02-22 14:01:00,
2013-02-22 08:06:00,27.7,25.4,29.78,East,90,0.0,0.0,91,0.00,CLR,BKN,0.00,WeatherDisplay:10.37,2013-02-22 14:06:00,
2013-02-22 08:11:00,27.9,25.6,29.78,ESE,112,0.0,0.0,91,0.00,CLR,BKN,0.00,WeatherDisplay:10.37,2013-02-22 14:11:00,
2013-02-22 08:16:00,28.0,25.8,29.78,ESE,112,0.0,0.0,91,0.00,CLR,BKN,0.00,WeatherDisplay:10.37,2013-02-22 14:16:00,
2013-02-22 08:21:00,28.0,25.8,29.78,ESE,112,0.0,0.0,91,0.00,CLR,BKN,0.00,WeatherDisplay:10.37,2013-02-22 14:21:00,
2013-02-22 08:26:00,28.4,26.1,29.78,ESE,112,0.0,0.0,91,0.00,CLR,BKN,0.00,WeatherDisplay:10.37,2013-02-22 14:26:00,
2013-02-22 08:31:00,28.4,26.1,29.78,ENE,68,0.0,0.0,91,0.00,CLR,BKN,0.00,WeatherDisplay:10.37,2013-02-22 14:31:00,
2013-02-22 08:36:00,28.6,26.3,29.78,ESE,112,0.0,0.0,91,0.00,CLR,BKN,0.00,WeatherDisplay:10.37,2013-02-22 14:36:00,
2013-02-22 08:41:00,28.8,26.5,29.78,ESE,112,0.0,0.0,91,0.00,CLR,BKN,0.00,WeatherDisplay:10.37,2013-02-22 14:41:00,
2013-02-22 08:46:00,28.8,26.5,29.78,ESE,112,0.0,0.0,91,0.00,CLR,BKN,0.00,WeatherDisplay:10.37,2013-02-22 14:46:00,
2013-02-22 08:51:00,28.9,26.6,29.78,ESE,112,0.0,0.0,91,0.00,CLR,BKN,0.00,WeatherDisplay:10.37,2013-02-22 14:51:00,
2013-02-22 08:56:00,29.1,26.8,29.78,ESE,112,0.0,0.0,91,0.00,CLR,BKN,0.00,WeatherDisplay:10.37,2013-02-22 14:56:00,
2013-02-22 09:01:00,29.1,26.8,29.78,SE,135,0.0,0.0,91,0.00,CLR,BKN,0.00,WeatherDisplay:10.37,2013-02-22 15:01:00,
2013-02-22 09:06:00,29.5,27.2,29.78,ESE,112,0.0,0.0,91,0.00,CLR,BKN,0.00,WeatherDisplay:10.37,2013-02-22 15:06:00,
2013-02-22 09:11:00,29.5,27.2,29.78,ESE,112,0.0,0.0,91,0.00,CLR,BKN,0.00,WeatherDisplay:10.37,2013-02-22 15:11:00,
2013-02-22 09:16:00,29.7,27.4,29.78,ESE,112,0.0,0.0,91,0.00,CLR,BKN,0.00,WeatherDisplay:10.37,2013-02-22 15:16:00,
2013-02-22 09:21:00,29.7,27.4,29.78,ESE,112,0.0,0.0,91,0.00,CLR,BKN,0.00,WeatherDisplay:10.37,2013-02-22 15:21:00,
2013-02-22 09:26:00,29.8,27.5,29.78,East,90,0.0,0.0,91,0.00,CLR,BKN,0.00,WeatherDisplay:10.37,2013-02-22 15:26:00,
2013-02-22 09:31:00,30.0,27.7,29.79,ESE,112,0.0,0.0,91,0.00,CLR,BKN,0.00,WeatherDisplay:10.37,2013-02-22 15:31:00,
2013-02-22 09:36:00,30.4,28.1,29.79,SE,135,0.0,0.0,91,0.00,CLR,BKN,0.00,WeatherDisplay:10.37,2013-02-22 15:36:00,
2013-02-22 09:41:00,30.6,28.2,29.78,SE,135,0.0,0.0,91,0.00,CLR,BKN,0.00,WeatherDisplay:10.37,2013-02-22 15:41:00,
2013-02-22 09:46:00,30.7,28.4,29.78,SE,135,0.0,0.0,91,0.00,CLR,BKN,0.00,WeatherDisplay:10.37,2013-02-22 15:46:00,
2013-02-22 09:51:00,31.1,28.8,29.78,SE,135,0.0,0.0,91,0.00,CLR,BKN,0.00,WeatherDisplay:10.37,2013-02-22 15:51:00,
2013-02-22 09:56:00,31.1,28.8,29.79,SE,135,0.0,0.0,91,0.00,CLR,BKN,0.00,WeatherDisplay:10.37,2013-02-22 15:56:00,
2013-02-22 10:01:00,31.3,29.0,29.79,SSE,158,0.0,0.0,91,0.00,CLR,BKN,0.00,WeatherDisplay:10.37,2013-02-22 16:01:00,
2013-02-22 10:06:00,31.6,29.3,29.79,SSE,158,0.0,0.0,91,0.00,CLR,BKN,0.00,WeatherDisplay:10.37,2013-02-22 16:06:00,
2013-02-22 10:11:00,31.8,29.5,29.79,SE,135,0.0,0.0,91,0.00,CLR,BKN,0.00,WeatherDisplay:10.37,2013-02-22 16:11:00,
2013-02-22 10:16:00,32.0,29.9,29.79,SSE,158,0.0,0.0,92,0.00,CLR,BKN,0.00,WeatherDisplay:10.37,2013-02-22 16:16:00,
2013-02-22 10:21:00,32.5,30.5,29.79,South,180,0.0,0.0,92,0.00,CLR,BKN,0.00,WeatherDisplay:10.37,2013-02-22 16:21:00,
2013-02-22 10:26:00,33.1,31.0,29.79,SW,225,0.0,0.0,92,0.00,CLR,BKN,0.00,WeatherDisplay:10.37,2013-02-22 16:26:00,
2013-02-22 10:31:00,33.3,31.2,29.79,South,180,0.0,0.0,92,0.00,CLR,BKN,0.00,WeatherDisplay:10.37,2013-02-22 16:31:00,
2013-02-22 10:36:00,33.4,31.4,29.79,SSW,202,0.0,0.0,92,0.00,CLR,BKN,0.00,WeatherDisplay:10.37,2013-02-22 16:36:00,
2013-02-22 10:41:00,33.6,31.5,29.79,South,180,0.0,0.0,92,0.00,CLR,BKN,0.00,WeatherDisplay:10.37,2013-02-22 16:41:00,
2013-02-22 10:46:00,34.0,31.9,29.79,SSW,202,0.0,0.0,92,0.00,CLR,BKN,0.00,WeatherDisplay:10.37,2013-02-22 16:46:00,
2013-02-22 10:51:00,34.2,32.1,29.79,South,180,0.0,0.0,92,0.00,CLR,BKN,0.00,WeatherDisplay:10.37,2013-02-22 16:51:00,
2013-02-22 10:56:00,34.5,32.4,29.79,SW,225,0.0,0.0,92,0.00,CLR,BKN,0.00,WeatherDisplay:10.37,2013-02-22 16:56:00,
2013-02-22 11:01:00,34.5,32.4,29.79,SSW,202,0.0,0.0,92,0.00,CLR,BKN,0.00,WeatherDisplay:10.37,2013-02-22 17:01:00,
2013-02-22 11:06:00,34.7,32.6,29.79,SW,225,0.0,0.0,92,0.00,CLR,BKN,0.00,WeatherDisplay:10.37,2013-02-22 17:06:00,
2013-02-22 11:11:00,34.9,32.8,29.79,SSW,202,0.0,0.0,92,0.00,CLR,BKN,0.00,WeatherDisplay:10.37,2013-02-22 17:11:00,
2013-02-22 11:16:00,35.1,33.0,29.80,SW,225,0.0,0.0,92,0.00,CLR,BKN,0.00,WeatherDisplay:10.37,2013-02-22 17:16:00,
2013-02-22 11:21:00,35.2,33.1,29.79,SW,225,0.0,0.0,92,0.01,RA,BKN,0.01,WeatherDisplay:10.37,2013-02-22 17:21:00,
2013-02-22 11:26:00,35.4,33.3,29.79,SW,225,0.0,0.0,92,0.01,RA,BKN,0.01,WeatherDisplay:10.37,2013-02-22 17:26:00,
2013-02-22 11:31:00,35.4,33.1,29.79,SW,225,0.0,0.0,91,0.01,,BKN,0.01,WeatherDisplay:10.37,2013-02-22 17:31:00,
2013-02-22 11:36:00,35.6,33.2,29.79,WSW,248,0.0,0.0,91,0.01,CLR,BKN,0.01,WeatherDisplay:10.37,2013-02-22 17:36:00,
2013-02-22 11:41:00,35.6,33.2,29.79,SW,225,0.0,0.0,91,0.01,CLR,BKN,0.01,WeatherDisplay:10.37,2013-02-22 17:41:00,
2013-02-22 11:46:00,35.6,33.0,29.79,WSW,248,0.0,0.0,90,0.02,RA,BKN,0.02,WeatherDisplay:10.37,2013-02-22 17:46:00,
2013-02-22 11:51:00,35.6,33.2,29.79,SW,225,0.0,0.0,91,0.02,RA,BKN,0.02,WeatherDisplay:10.37,2013-02-22 17:51:00,
2013-02-22 11:56:00,35.6,33.2,29.79,WSW,248,0.0,0.0,91,0.02,,BKN,0.02,WeatherDisplay:10.37,2013-02-22 17:56:00,
2013-02-22 12:01:00,35.8,33.1,29.79,SW,225,0.0,0.0,90,0.02,CLR,BKN,0.02,WeatherDisplay:10.37,2013-02-22 18:01:00,
2013-02-22 12:06:00,35.8,33.1,29.78,WSW,248,0.0,0.0,90,0.02,CLR,BKN,0.02,WeatherDisplay:10.37,2013-02-22 18:06:00,
2013-02-22 12:11:00,36.0,33.3,29.78,WSW,248,0.0,0.0,90,0.02,CLR,BKN,0.02,WeatherDisplay:10.37,2013-02-22 18:11:00,
2013-02-22 12:16:00,36.0,33.0,29.79,SSW,202,0.0,0.0,89,0.02,CLR,BKN,0.02,WeatherDisplay:10.37,2013-02-22 18:16:00,
2013-02-22 12:21:00,36.0,33.0,29.79,WSW,248,0.0,0.0,89,0.01,CLR,BKN,0.02,WeatherDisplay:10.37,2013-02-22 18:21:00,
2013-02-22 12:26:00,36.0,33.0,29.79,WSW,248,0.0,0.0,89,0.01,CLR,BKN,0.02,WeatherDisplay:10.37,2013-02-22 18:26:00,
2013-02-22 12:31:00,36.0,33.0,29.79,WSW,248,0.0,0.0,89,0.01,CLR,BKN,0.02,WeatherDisplay:10.37,2013-02-22 18:31:00,
2013-02-22 12:36:00,36.1,32.9,29.79,WSW,248,0.0,0.0,88,0.01,CLR,BKN,0.02,WeatherDisplay:10.37,2013-02-22 18:36:00,
2013-02-22 12:41:00,36.0,32.8,29.78,WSW,248,0.0,0.0,88,0.01,CLR,BKN,0.02,WeatherDisplay:10.37,2013-02-22 18:41:00,
2013-02-22 12:46:00,36.1,32.9,29.78,WSW,248,0.0,0.0,88,0.00,CLR,BKN,0.02,WeatherDisplay:10.37,2013-02-22 18:46:00,
2013-02-22 12:51:00,36.1,32.9,29.78,WSW,248,0.0,0.0,88,0.00,CLR,BKN,0.02,WeatherDisplay:10.37,2013-02-22 18:51:00,
2013-02-22 12:56:00,36.1,32.6,29.78,WSW,248,0.0,0.0,87,0.00,CLR,BKN,0.02,WeatherDisplay:10.37,2013-02-22 18:56:00,
2013-02-22 13:01:00,36.3,32.8,29.78,SW,225,0.0,0.0,87,0.00,CLR,BKN,0.02,WeatherDisplay:10.37,2013-02-22 19:01:00,
2013-02-22 13:06:00,36.3,32.5,29.78,WSW,248,0.0,0.0,86,0.01,RA,BKN,0.03,WeatherDisplay:10.37,2013-02-22 19:06:00,
2013-02-22 13:11:00,36.0,32.2,29.78,SW,225,0.0,0.0,86,0.01,RA,BKN,0.03,WeatherDisplay:10.37,2013-02-22 19:11:00,
2013-02-22 13:16:00,36.0,32.2,29.78,WSW,248,0.0,0.0,86,0.01,,BKN,0.03,WeatherDisplay:10.37,2013-02-22 19:16:00,
2013-02-22 13:21:00,36.1,32.1,29.78,WSW,248,0.0,0.0,85,0.01,CLR,BKN,0.03,WeatherDisplay:10.37,2013-02-22 19:21:00,
2013-02-22 13:26:00,36.0,31.6,29.78,SW,225,0.0,0.0,84,0.01,CLR,BKN,0.03,WeatherDisplay:10.37,2013-02-22 19:26:00,
2013-02-22 13:31:00,36.0,31.3,29.78,WSW,248,0.0,0.0,83,0.01,CLR,BKN,0.03,WeatherDisplay:10.37,2013-02-22 19:31:00,
2013-02-22 13:36:00,36.0,31.3,29.78,WSW,248,0.0,0.0,83,0.01,CLR,BKN,0.03,WeatherDisplay:10.37,2013-02-22 19:36:00,
2013-02-22 13:41:00,36.0,31.3,29.78,WSW,248,0.0,0.0,83,0.01,CLR,BKN,0.03,WeatherDisplay:10.37,2013-02-22 19:41:00,
2013-02-22 13:46:00,36.0,30.7,29.79,WSW,248,0.0,0.0,81,0.01,CLR,BKN,0.03,WeatherDisplay:10.37,2013-02-22 19:46:00,
2013-02-22 13:51:00,36.0,30.7,29.79,WSW,248,0.0,0.0,81,0.01,CLR,BKN,0.03,WeatherDisplay:10.37,2013-02-22 19:51:00,
2013-02-22 13:56:00,35.8,30.2,29.79,WSW,248,0.0,0.0,80,0.01,CLR,BKN,0.03,WeatherDisplay:10.37,2013-02-22 19:56:00,
2013-02-22 14:01:00,35.6,30.0,29.79,WSW,248,0.0,0.0,80,0.01,CLR,BKN,0.03,WeatherDisplay:10.37,2013-02-22 20:01:00,
2013-02-22 14:06:00,35.4,29.9,29.79,WSW,248,0.0,0.0,80,0.00,CLR,BKN,0.03,WeatherDisplay:10.37,2013-02-22 20:06:00,
2013-02-22 14:11:00,35.1,29.5,29.80,WSW,248,0.0,0.0,80,0.00,CLR,BKN,0.03,WeatherDisplay:10.37,2013-02-22 20:11:00,
2013-02-22 14:16:00,35.1,29.5,29.80,WSW,248,0.0,0.0,80,0.00,CLR,BKN,0.03,WeatherDisplay:10.37,2013-02-22 20:16:00,
2013-02-22 14:21:00,34.9,29.3,29.80,West,270,0.0,0.0,80,0.00,CLR,BKN,0.03,WeatherDisplay:10.37,2013-02-22 20:21:00,
2013-02-22 14:26:00,34.7,29.2,29.80,WSW,248,0.0,0.0,80,0.00,CLR,BKN,0.03,WeatherDisplay:10.37,2013-02-22 20:26:00,
2013-02-22 14:31:00,34.3,28.8,29.81,WSW,248,0.0,0.0,80,0.00,CLR,BKN,0.03,WeatherDisplay:10.37,2013-02-22 20:31:00,
2013-02-22 14:36:00,34.2,28.6,29.81,West,270,0.0,0.0,80,0.00,CLR,BKN,0.03,WeatherDisplay:10.37,2013-02-22 20:36:00,
2013-02-22 14:41:00,34.2,28.6,29.81,SW,225,0.0,0.0,80,0.00,CLR,BKN,0.03,WeatherDisplay:10.37,2013-02-22 20:41:00,
2013-02-22 14:46:00,34.2,28.6,29.81,WSW,248,0.0,0.0,80,0.00,CLR,BKN,0.03,WeatherDisplay:10.37,2013-02-22 20:46:00,
2013-02-22 14:51:00,34.0,28.8,29.82,WSW,248,0.0,0.0,81,0.00,CLR,BKN,0.03,WeatherDisplay:10.37,2013-02-22 20:51:00,
2013-02-22 14:56:00,33.8,28.3,29.82,WSW,248,0.0,0.0,80,0.00,CLR,BKN,0.03,WeatherDisplay:10.37,2013-02-22 20:56:00,
2013-02-22 15:01:00,33.6,28.4,29.82,West,270,0.0,0.0,81,0.00,CLR,BKN,0.03,WeatherDisplay:10.37,2013-02-22 21:01:00,
2013-02-22 15:06:00,33.4,27.9,29.82,West,270,0.0,0.0,80,0.00,CLR,BKN,0.03,WeatherDisplay:10.37,2013-02-22 21:06:00,
2013-02-22 15:11:00,33.1,27.6,29.82,WSW,248,0.0,0.0,80,0.00,CLR,BKN,0.03,WeatherDisplay:10.37,2013-02-22 21:11:00,
2013-02-22 15:16:00,32.9,27.7,29.82,WSW,248,0.0,0.0,81,0.00,CLR,BKN,0.03,WeatherDisplay:10.37,2013-02-22 21:16:00,
2013-02-22 15:21:00,32.7,27.5,29.83,West,270,0.0,0.0,81,0.00,CLR,BKN,0.03,WeatherDisplay:10.37,2013-02-22 21:21:00,
2013-02-22 15:26:00,32.7,27.5,29.83,WSW,248,0.0,0.0,81,0.00,CLR,BKN,0.03,WeatherDisplay:10.37,2013-02-22 21:26:00,
2013-02-22 15:31:00,32.7,27.5,29.83,WSW,248,0.0,0.0,81,0.00,CLR,BKN,0.03,WeatherDisplay:10.37,2013-02-22 21:31:00,
2013-02-22 15:36:00,32.5,27.4,29.83,WSW,248,0.0,0.0,81,0.00,CLR,BKN,0.03,WeatherDisplay:10.37,2013-02-22 21:36:00,
2013-02-22 15:41:00,32.5,27.7,29.83,WSW,248,0.0,0.0,82,0.00,CLR,BKN,0.03,WeatherDisplay:10.37,2013-02-22 21:41:00,
2013-02-22 15:46:00,32.7,27.8,29.83,WSW,248,0.0,0.0,82,0.00,CLR,BKN,0.03,WeatherDisplay:10.37,2013-02-22 21:46:00,
2013-02-22 15:51:00,32.5,27.4,29.83,WSW,248,0.0,0.0,81,0.00,CLR,BKN,0.03,WeatherDisplay:10.37,2013-02-22 21:51:00,
2013-02-22 15:56:00,32.5,27.4,29.83,WSW,248,0.0,0.0,81,0.00,CLR,BKN,0.03,WeatherDisplay:10.37,2013-02-22 21:56:00,
2013-02-22 16:01:00,32.5,27.4,29.83,WSW,248,0.0,0.0,81,0.00,CLR,BKN,0.03,WeatherDisplay:10.37,2013-02-22 22:01:00,
2013-02-22 16:06:00,32.5,27.4,29.83,West,270,0.0,0.0,81,0.00,CLR,BKN,0.03,WeatherDisplay:10.37,2013-02-22 22:06:00,
2013-02-22 16:11:00,32.5,27.7,29.83,West,270,0.0,0.0,82,0.00,CLR,BKN,0.03,WeatherDisplay:10.37,2013-02-22 22:11:00,
2013-02-22 16:16:00,32.4,27.2,29.84,WSW,248,0.0,0.0,81,0.00,CLR,BKN,0.03,WeatherDisplay:10.37,2013-02-22 22:16:00,
2013-02-22 16:21:00,32.4,27.5,29.84,WSW,248,0.0,0.0,82,0.00,CLR,BKN,0.03,WeatherDisplay:10.37,2013-02-22 22:21:00,
2013-02-22 16:26:00,32.4,27.2,29.84,West,270,0.0,0.0,81,0.00,CLR,BKN,0.03,WeatherDisplay:10.37,2013-02-22 22:26:00,
2013-02-22 16:31:00,32.2,27.0,29.84,WSW,248,0.0,0.0,81,0.00,CLR,BKN,0.03,WeatherDisplay:10.37,2013-02-22 22:31:00,
2013-02-22 16:36:00,32.2,27.0,29.84,West,270,0.0,0.0,81,0.00,CLR,BKN,0.03,WeatherDisplay:10.37,2013-02-22 22:36:00,
2013-02-22 16:41:00,32.2,26.7,29.84,WNW,292,0.0,0.0,80,0.00,CLR,BKN,0.03,WeatherDisplay:10.37,2013-02-22 22:41:00,
2013-02-22 16:46:00,32.0,26.8,29.84,WSW,248,0.0,0.0,81,0.00,CLR,BKN,0.03,WeatherDisplay:10.37,2013-02-22 22:46:00,
2013-02-22 16:51:00,32.0,26.8,29.84,WSW,248,0.0,0.0,81,0.00,CLR,BKN,0.03,WeatherDisplay:10.37,2013-02-22 22:51:00,
2013-02-22 16:56:00,32.0,26.5,29.85,West,270,0.0,0.0,80,0.00,CLR,BKN,0.03,WeatherDisplay:10.37,2013-02-22 22:56:00,
2013-02-22 17:01:00,31.8,26.7,29.85,West,270,0.0,0.0,81,0.00,CLR,BKN,0.03,WeatherDisplay:10.37,2013-02-22 23:01:00,
2013-02-22 17:06:00,31.8,26.7,29.85,West,270,0.0,0.0,81,0.00,CLR,BKN,0.03,WeatherDisplay:10.37,2013-02-22 23:06:00,
2013-02-22 17:11:00,31.6,26.5,29.85,WSW,248,0.0,0.0,81,0.00,CLR,BKN,0.03,WeatherDisplay:10.37,2013-02-22 23:11:00,
2013-02-22 17:16:00,31.6,26.5,29.85,WSW,248,0.0,0.0,81,0.00,CLR,BKN,0.03,WeatherDisplay:10.37,2013-02-22 23:16:00,
2013-02-22 17:21:00,31.6,26.8,29.85,WSW,248,0.0,0.0,82,0.00,CLR,BKN,0.03,WeatherDisplay:10.37,2013-02-22 23:21:00,
2013-02-22 17:26:00,31.6,26.8,29.85,West,270,0.0,0.0,82,0.00,CLR,BKN,0.03,WeatherDisplay:10.37,2013-02-22 23:26:00,
2013-02-22 17:31:00,31.6,26.8,29.86,West,270,0.0,0.0,82,0.00,CLR,BKN,0.03,WeatherDisplay:10.37,2013-02-22 23:31:00,
2013-02-22 17:36:00,31.5,26.6,29.85,WNW,292,0.0,0.0,82,0.00,CLR,BKN,0.03,WeatherDisplay:10.37,2013-02-22 23:36:00,
2013-02-22 17:41:00,31.5,26.9,29.86,West,270,0.0,0.0,83,0.00,CLR,BKN,0.03,WeatherDisplay:10.37,2013-02-22 23:41:00,
2013-02-22 17:46:00,31.3,26.7,29.86,WSW,248,0.0,0.0,83,0.00,CLR,BKN,0.03,WeatherDisplay:10.37,2013-02-22 23:46:00,
2013-02-22 17:51:00,31.3,26.7,29.86,West,270,0.0,0.0,83,0.00,CLR,BKN,0.03,WeatherDisplay:10.37,2013-02-22 23:51:00,
2013-02-22 17:56:00,31.1,26.5,29.86,WSW,248,0.0,0.0,83,0.00,CLR,BKN,0.03,WeatherDisplay:10.37,2013-02-22 23:56:00,
2013-02-22 18:01:00,31.1,26.5,29.86,WSW,248,0.0,0.0,83,0.00,CLR,BKN,0.03,WeatherDisplay:10.37,2013-02-23 00:01:00,
2013-02-22 18:06:00,30.9,26.4,29.87,WSW,248,0.0,0.0,83,0.00,CLR,BKN,0.03,WeatherDisplay:10.37,2013-02-23 00:06:00,
2013-02-22 18:11:00,30.9,26.4,29.87,SW,225,0.0,0.0,83,0.00,CLR,BKN,0.03,WeatherDisplay:10.37,2013-02-23 00:11:00,
2013-02-22 18:16:00,30.9,26.1,29.87,West,270,0.0,0.0,82,0.00,CLR,BKN,0.03,WeatherDisplay:10.37,2013-02-23 00:16:00,
2013-02-22 18:21:00,30.9,25.8,29.87,West,270,0.0,0.0,81,0.00,CLR,BKN,0.03,WeatherDisplay:10.37,2013-02-23 00:21:00,
2013-02-22 18:26:00,30.7,25.9,29.87,WSW,248,0.0,0.0,82,0.00,CLR,BKN,0.03,WeatherDisplay:10.37,2013-02-23 00:26:00,
2013-02-22 18:31:00,30.7,25.9,29.87,WSW,248,0.0,0.0,82,0.00,CLR,BKN,0.03,WeatherDisplay:10.37,2013-02-23 00:31:00,
2013-02-22 18:36:00,30.6,25.4,29.87,WSW,248,0.0,0.0,81,0.00,CLR,BKN,0.03,WeatherDisplay:10.37,2013-02-23 00:36:00,
2013-02-22 18:41:00,30.6,25.4,29.87,WSW,248,0.0,0.0,81,0.00,CLR,BKN,0.03,WeatherDisplay:10.37,2013-02-23 00:41:00,
2013-02-22 18:46:00,30.6,25.7,29.87,WSW,248,0.0,0.0,82,0.00,CLR,BKN,0.03,WeatherDisplay:10.37,2013-02-23 00:46:00,
2013-02-22 18:51:00,30.6,25.7,29.87,WSW,248,0.0,0.0,82,0.00,CLR,BKN,0.03,WeatherDisplay:10.37,2013-02-23 00:51:00,
2013-02-22 18:56:00,30.6,25.7,29.88,WSW,248,0.0,0.0,82,0.00,CLR,BKN,0.03,WeatherDisplay:10.37,2013-02-23 00:56:00,
2013-02-22 19:01:00,30.4,25.5,29.88,SW,225,0.0,0.0,82,0.00,CLR,BKN,0.03,WeatherDisplay:10.37,2013-02-23 01:01:00,
2013-02-22 19:06:00,30.4,25.5,29.88,WSW,248,0.0,0.0,82,0.00,CLR,BKN,0.03,WeatherDisplay:10.37,2013-02-23 01:06:00,
2013-02-22 19:11:00,30.4,25.5,29.88,West,270,0.0,0.0,82,0.00,CLR,BKN,0.03,WeatherDisplay:10.37,2013-02-23 01:11:00,
2013-02-22 19:16:00,30.4,25.8,29.88,WSW,248,0.0,0.0,83,0.00,CLR,BKN,0.03,WeatherDisplay:10.37,2013-02-23 01:16:00,
2013-02-22 19:21:00,30.2,25.7,29.89,WNW,292,0.0,0.0,83,0.00,CLR,BKN,0.03,WeatherDisplay:10.37,2013-02-23 01:21:00,
2013-02-22 19:26:00,30.2,25.7,29.88,West,270,0.0,0.0,83,0.00,CLR,BKN,0.03,WeatherDisplay:10.37,2013-02-23 01:26:00,
2013-02-22 19:31:00,30.2,25.7,29.89,WSW,248,0.0,0.0,83,0.00,CLR,BKN,0.03,WeatherDisplay:10.37,2013-02-23 01:31:00,
2013-02-22 19:36:00,30.2,25.7,29.89,WSW,248,0.0,0.0,83,0.00,CLR,BKN,0.03,WeatherDisplay:10.37,2013-02-23 01:36:00,
2013-02-22 19:41:00,30.2,25.7,29.89,West,270,0.0,0.0,83,0.00,CLR,BKN,0.03,WeatherDisplay:10.37,2013-02-23 01:41:00,
2013-02-22 19:46:00,30.2,25.7,29.89,West,270,0.0,0.0,83,0.00,CLR,BKN,0.03,WeatherDisplay:10.37,2013-02-23 01:46:00,
2013-02-22 19:51:00,30.2,25.7,29.89,WSW,248,0.0,0.0,83,0.00,CLR,BKN,0.03,WeatherDisplay:10.37,2013-02-23 01:51:00,
2013-02-22 19:56:00,30.0,25.5,29.89,WSW,248,0.0,0.0,83,0.00,CLR,BKN,0.03,WeatherDisplay:10.37,2013-02-23 01:56:00,
2013-02-22 20:01:00,30.0,25.5,29.89,WSW,248,0.0,0.0,83,0.00,CLR,BKN,0.03,WeatherDisplay:10.37,2013-02-23 02:01:00,
2013-02-22 20:06:00,29.8,25.3,29.89,WSW,248,0.0,0.0,83,0.00,CLR,BKN,0.03,WeatherDisplay:10.37,2013-02-23 02:06:00,
2013-02-22 20:11:00,30.0,25.5,29.89,WSW,248,0.0,0.0,83,0.00,CLR,BKN,0.03,WeatherDisplay:10.37,2013-02-23 02:11:00,
2013-02-22 20:16:00,29.8,25.3,29.89,WSW,248,0.0,0.0,83,0.00,CLR,BKN,0.03,WeatherDisplay:10.37,2013-02-23 02:16:00,
2013-02-22 20:21:00,29.8,25.3,29.89,WSW,248,0.0,0.0,83,0.00,CLR,BKN,0.03,WeatherDisplay:10.37,2013-02-23 02:21:00,
2013-02-22 20:26:00,29.8,25.3,29.89,WSW,248,0.0,0.0,83,0.00,CLR,BKN,0.03,WeatherDisplay:10.37,2013-02-23 02:26:00,
2013-02-22 20:31:00,29.8,25.3,29.89,WSW,248,0.0,0.0,83,0.00,CLR,BKN,0.03,WeatherDisplay:10.37,2013-02-23 02:31:00,
2013-02-22 20:36:00,29.8,25.3,29.89,WSW,248,0.0,0.0,83,0.00,CLR,BKN,0.03,WeatherDisplay:10.37,2013-02-23 02:36:00,
2013-02-22 20:41:00,29.8,25.3,29.89,WSW,248,0.0,0.0,83,0.00,CLR,BKN,0.03,WeatherDisplay:10.37,2013-02-23 02:41:00,
2013-02-22 20:46:00,29.8,25.3,29.89,West,270,0.0,0.0,83,0.00,CLR,BKN,0.03,WeatherDisplay:10.37,2013-02-23 02:46:00,
2013-02-22 20:51:00,29.8,25.3,29.89,WSW,248,0.0,0.0,83,0.00,CLR,BKN,0.03,WeatherDisplay:10.37,2013-02-23 02:51:00,
2013-02-22 20:56:00,29.7,25.1,29.89,WSW,248,0.0,0.0,83,0.00,CLR,BKN,0.03,WeatherDisplay:10.37,2013-02-23 02:56:00,
2013-02-22 21:01:00,29.7,25.4,29.89,WSW,248,0.0,0.0,84,0.00,CLR,BKN,0.03,WeatherDisplay:10.37,2013-02-23 03:01:00,
2013-02-22 21:06:00,29.7,25.4,29.89,WSW,248,0.0,0.0,84,0.00,CLR,BKN,0.03,WeatherDisplay:10.37,2013-02-23 03:06:00,
2013-02-22 21:11:00,29.7,26.0,29.89,WSW,248,0.0,0.0,86,0.00,CLR,BKN,0.03,WeatherDisplay:10.37,2013-02-23 03:11:00,
2013-02-22 21:16:00,29.5,25.8,29.89,WSW,248,0.0,0.0,86,0.00,CLR,BKN,0.03,WeatherDisplay:10.37,2013-02-23 03:16:00,
2013-02-22 21:21:00,29.5,25.8,29.89,WSW,248,0.0,0.0,86,0.00,CLR,BKN,0.03,WeatherDisplay:10.37,2013-02-23 03:21:00,
2013-02-22 21:26:00,29.5,25.8,29.90,West,270,0.0,0.0,86,0.00,CLR,BKN,0.03,WeatherDisplay:10.37,2013-02-23 03:26:00,
2013-02-22 21:31:00,29.3,25.6,29.90,WSW,248,0.0,0.0,86,0.00,CLR,BKN,0.03,WeatherDisplay:10.37,2013-02-23 03:31:00,
2013-02-22 21:36:00,29.3,25.6,29.89,SW,225,0.0,0.0,86,0.00,CLR,BKN,0.03,WeatherDisplay:10.37,2013-02-23 03:36:00,
2013-02-22 21:41:00,29.1,25.5,29.90,WSW,248,0.0,0.0,86,0.00,CLR,BKN,0.03,WeatherDisplay:10.37,2013-02-23 03:41:00,
2013-02-22 21:46:00,29.1,25.5,29.90,WSW,248,0.0,0.0,86,0.00,CLR,BKN,0.03,WeatherDisplay:10.37,2013-02-23 03:46:00,
2013-02-22 21:51:00,29.1,25.5,29.90,West,270,0.0,0.0,86,0.00,CLR,BKN,0.03,WeatherDisplay:10.37,2013-02-23 03:51:00,
2013-02-22 21:56:00,29.1,25.5,29.90,WSW,248,0.0,0.0,86,0.00,CLR,BKN,0.03,WeatherDisplay:10.37,2013-02-23 03:56:00,
2013-02-22 22:01:00,29.1,25.5,29.90,WSW,248,0.0,0.0,86,0.00,CLR,BKN,0.03,WeatherDisplay:10.37,2013-02-23 04:01:00,
2013-02-22 22:06:00,29.1,25.5,29.90,WSW,248,0.0,0.0,86,0.00,CLR,BKN,0.03,WeatherDisplay:10.37,2013-02-23 04:06:00,
2013-02-22 22:11:00,29.1,25.5,29.89,WSW,248,0.0,0.0,86,0.00,CLR,BKN,0.03,WeatherDisplay:10.37,2013-02-23 04:11:00,
2013-02-22 22:16:00,29.1,25.5,29.89,WSW,248,0.0,0.0,86,0.00,CLR,BKN,0.03,WeatherDisplay:10.37,2013-02-23 04:16:00,
2013-02-22 22:21:00,28.9,25.3,29.89,West,270,0.0,0.0,86,0.00,CLR,BKN,0.03,WeatherDisplay:10.37,2013-02-23 04:21:00,
2013-02-22 22:26:00,28.9,25.3,29.89,WSW,248,0.0,0.0,86,0.00,CLR,BKN,0.03,WeatherDisplay:10.37,2013-02-23 04:26:00,
2013-02-22 22:31:00,28.9,25.3,29.90,West,270,0.0,0.0,86,0.00,CLR,BKN,0.03,WeatherDisplay:10.37,2013-02-23 04:31:00,
2013-02-22 22:36:00,28.9,25.3,29.90,West,270,0.0,0.0,86,0.00,CLR,BKN,0.03,WeatherDisplay:10.37,2013-02-23 04:36:00,
2013-02-22 22:41:00,28.9,25.3,29.90,West,270,0.0,0.0,86,0.00,CLR,BKN,0.03,WeatherDisplay:10.37,2013-02-23 04:41:00,
2013-02-22 22:46:00,28.9,25.0,29.90,WSW,248,0.0,0.0,85,0.00,CLR,BKN,0.03,WeatherDisplay:10.37,2013-02-23 04:46:00,
2013-02-22 22:51:00,28.8,24.8,29.90,WSW,248,0.0,0.0,85,0.00,CLR,BKN,0.03,WeatherDisplay:10.37,2013-02-23 04:51:00,
2013-02-22 22:56:00,28.8,24.8,29.90,WSW,248,0.0,0.0,85,0.00,CLR,BKN,0.03,WeatherDisplay:10.37,2013-02-23 04:56:00,
2013-02-22 23:00:00,28.6,24.4,29.90,West,270,0.0,0.0,84,0.00,CLR,BKN,0.03,WeatherDisplay:10.37,2013-02-23 05:00:00,
2013-02-22 23:05:00,28.4,24.5,29.90,WSW,248,0.0,0.0,85,0.00,CLR,BKN,0.03,WeatherDisplay:10.37,2013-02-23 05:05:00,
2013-02-22 23:10:00,28.2,24.3,29.90,WSW,248,0.0,0.0,85,0.00,CLR,BKN,0.03,WeatherDisplay:10.37,2013-02-23 05:10:00,
2013-02-22 23:15:00,28.0,23.8,29.90,WSW,248,0.0,0.0,84,0.00,CLR,BKN,0.03,WeatherDisplay:10.37,2013-02-23 05:15:00,
2013-02-22 23:20:00,27.9,23.7,29.90,WSW,248,0.0,0.0,84,0.00,CLR,BKN,0.03,WeatherDisplay:10.37,2013-02-23 05:20:00,
2013-02-22 23:25:00,27.7,23.5,29.90,West,270,0.0,0.0,84,0.00,CLR,BKN,0.03,WeatherDisplay:10.37,2013-02-23 05:25:00,
2013-02-22 23:30:00,27.7,23.5,29.90,West,270,0.0,0.0,84,0.00,CLR,BKN,0.03,WeatherDisplay:10.37,2013-02-23 05:30:00,
2013-02-22 23:35:00,27.7,23.5,29.90,WSW,248,0.0,0.0,84,0.00,CLR,BKN,0.03,WeatherDisplay:10.37,2013-02-23 05:35:00,
2013-02-22 23:40:00,27.7,23.5,29.90,West,270,0.0,0.0,84,0.00,CLR,BKN,0.03,WeatherDisplay:10.37,2013-02-23 05:40:00,
2013-02-22 23:45:00,27.9,23.7,29.90,West,270,0.0,0.0,84,0.00,CLR,BKN,0.03,WeatherDisplay:10.37,2013-02-23 05:45:00,
2013-02-22 23:50:00,27.9,23.7,29.90,WSW,248,0.0,0.0,84,0.00,CLR,BKN,0.03,WeatherDisplay:10.37,2013-02-23 05:50:00,
2013-02-22 23:55:00,27.9,23.7,29.90,West,270,0.0,0.0,84,0.00,CLR,BKN,0.03,WeatherDisplay:10.37,2013-02-23 05:55:00,